Zurück zum Katalog

STARLINK-3399

AktivKommunikationVLEO
NORAD 51121·PAYLOAD·🇺🇸 United States

Gestartet Jan 19, 2022 von Cape Canaveral Space Force Station

Loading…

Nächste Überflüge (nächste 24 Stunden)

TLE

AktuellSource: CelesTrak SupGP

Epoche: Sep 14, 2026, 13:12 UTC

1 51121C 22005T   26257.55048611  .00007430  00000+0  46603-3 0  2573
2 51121  53.1584 160.6733 0001687  93.7652  66.5710 15.08825295    19

Verfolge STARLINK-3399 in Echtzeit mit AllMySat

Download on the App Store